Chesapeake, VA

7:28 AM EST on February 06, 2016 (GMT -0500)
Chesapeake Regional

Weather History for KCPK - January, 2014

Change the Weather History Date:

Thursday, January 2, 2014

  Actual Average (KORF) Record (KORF)
Temperature  
Mean Temperature 45 °F 41 °F  
Max Temperature 48 °F 49 °F 76 °F (1985)
Min Temperature 42 °F 33 °F 12 °F (1928)
Degree Days  
Heating Degree Days 20 24  
Month to date heating degree days 48  
Since 1 July heating degree days 1227  
Cooling Degree Days 0 0  
Month to date cooling degree days 0  
Year to date cooling degree days 0  
Moisture  
Dew Point 39 °F    
Average Humidity 81    
Maximum Humidity 100    
Minimum Humidity 66    
Precipitation  
Precipitation 0.33 in 0.10 in 1.78 in (1979)
Month to date precipitation 0.20  
Year to date precipitation 0.20  
Snow  
Snow 0.00 in 0.00 in 2.10 in (1918)
Month to date snowfall 0.1  
Since 1 July snowfall 1.3  
Snow Depth -    
Sea Level Pressure  
Sea Level Pressure 29.85 in    
Wind  
Wind Speed 1 mph (West)    
Max Wind Speed 8 mph    
Max Gust Speed -    
Visibility 9 miles    
Events Rain    
T = Trace of Precipitation, MM = Missing Value Source: NWS Daily Summary

Daily Weather History Graph

Daily Weather History Graph

Search for Another Location

Airport or City:

Trip Planner

Search our weather history database for the weather conditions in past years. The results will help you decide how hot, cold, wet, or windy it might be!

Date:

Astronomy

Jan. 02, 2014 Rise Set
Actual Time 7:17 AM EST 5:01 PM EST
Civil Twilight 6:49 AM EST 5:29 PM EST
Nautical Twilight 6:16 AM EST 6:02 PM EST
Astronomical Twilight 5:45 AM EST 6:33 PM EST
Moon 8:00 AM EST (1/2) 6:51 PM EST (1/2)
Length of Visible Light 10h 40m
Length of Day
9h 43m
New Moon, 2% of the Moon is Illuminated
Jan 2
New Moon
Jan 7
First Quarter
Jan 15
Full
Jan 24
Last Quarter
Jan 30
New

Hourly Weather History & Observations

Time (EST) Temp. Windchill Dew Point Humidity Pressure Visibility Wind Dir Wind Speed Gust Speed Precip Events Conditions
12:15 AM 42.8 °F - 37.4 °F 81% 30.16 in 10.0 mi Calm Calm - N/A   Overcast
12:35 AM 42.8 °F - 37.4 °F 81% 30.15 in 10.0 mi Calm Calm - N/A   Overcast
12:55 AM 42.8 °F - 37.4 °F 81% 30.14 in 10.0 mi Calm Calm - N/A   Overcast
1:15 AM 42.8 °F - 39.2 °F 87% 30.13 in 10.0 mi Calm Calm - N/A   Overcast
1:35 AM 42.8 °F - 39.2 °F 87% 30.12 in 10.0 mi Calm Calm - N/A   Overcast
1:55 AM 44.6 °F 42.2 °F 37.4 °F 76% 30.12 in 10.0 mi NW 4.6 mph - N/A   Overcast
2:15 AM 44.6 °F - 35.6 °F 71% 30.12 in 10.0 mi Calm Calm - N/A   Overcast
2:35 AM 44.6 °F - 35.6 °F 71% 30.12 in 10.0 mi Calm Calm - N/A   Overcast
2:55 AM 44.6 °F - 35.6 °F 71% 30.11 in 10.0 mi Calm Calm - N/A   Overcast
3:15 AM 44.6 °F - 35.6 °F 71% 30.10 in 10.0 mi Calm Calm - N/A   Overcast
3:35 AM 44.6 °F - 35.6 °F 71% 30.08 in 10.0 mi Calm Calm - N/A   Overcast
3:55 AM 44.6 °F - 35.6 °F 71% 30.07 in 10.0 mi Calm Calm - N/A   Overcast
4:15 AM 44.6 °F - 37.4 °F 76% 30.06 in 7.0 mi Calm Calm - N/A   Overcast
4:35 AM 44.6 °F - 37.4 °F 76% 30.05 in 10.0 mi Calm Calm - N/A   Overcast
4:55 AM 44.6 °F - 37.4 °F 76% 30.06 in 10.0 mi Calm Calm - N/A   Overcast
5:15 AM 44.6 °F - 37.4 °F 76% 30.04 in 10.0 mi Calm Calm - N/A   Mostly Cloudy
5:35 AM 42.8 °F - 37.4 °F 81% 30.04 in 10.0 mi Calm Calm - N/A   Scattered Clouds
5:55 AM 42.8 °F - 37.4 °F 81% 30.03 in 10.0 mi Calm Calm - N/A   Clear
6:15 AM 42.8 °F - 37.4 °F 81% 30.04 in 10.0 mi Calm Calm - N/A   Scattered Clouds
6:35 AM 42.8 °F - 39.2 °F 87% 30.03 in 10.0 mi Calm Calm - N/A   Mostly Cloudy
6:55 AM 42.8 °F - 37.4 °F 81% 30.02 in 10.0 mi Calm Calm - N/A   Scattered Clouds
7:15 AM 42.8 °F - 39.2 °F 87% 30.01 in 10.0 mi Calm Calm - N/A   Mostly Cloudy
7:35 AM 42.8 °F - 39.2 °F 87% 30.02 in 10.0 mi Calm Calm - N/A   Mostly Cloudy
7:55 AM 42.8 °F - 39.2 °F 87% 30.01 in 10.0 mi Calm Calm - N/A   Scattered Clouds
8:15 AM 42.8 °F - 37.4 °F 81% 30.00 in 10.0 mi Calm Calm - N/A   Scattered Clouds
8:35 AM 44.6 °F - 37.4 °F 76% 29.98 in 10.0 mi Calm Calm - N/A   Scattered Clouds
8:55 AM 44.6 °F - 37.4 °F 76% 29.98 in 10.0 mi Calm Calm - N/A   Light Drizzle
9:15 AM 44.6 °F - 37.4 °F 76% 29.97 in 10.0 mi Calm Calm - N/A   Scattered Clouds
9:35 AM 44.6 °F - 37.4 °F 76% 29.95 in 10.0 mi Calm Calm - N/A   Clear
9:55 AM 44.6 °F - 37.4 °F 76% 29.95 in 10.0 mi Calm Calm - N/A   Clear
10:15 AM 44.6 °F - 37.4 °F 76% 29.95 in 10.0 mi Calm Calm - N/A   Clear
10:35 AM 46.4 °F - 37.4 °F 71% 29.94 in 10.0 mi Calm Calm - N/A   Clear
10:55 AM 46.4 °F - 37.4 °F 71% 29.93 in 7.0 mi Calm Calm - N/A   Clear
11:15 AM 46.4 °F - 37.4 °F 71% 29.91 in 10.0 mi Calm Calm - N/A   Clear
11:35 AM 46.4 °F 45.2 °F 35.6 °F 66% 29.89 in 10.0 mi SSE 3.5 mph - N/A   Clear
11:55 AM 46.4 °F - 35.6 °F 66% 29.87 in 10.0 mi Calm Calm - N/A   Clear
12:15 PM 46.4 °F - 37.4 °F 71% 29.86 in 10.0 mi Calm Calm - N/A   Clear
12:35 PM 46.4 °F 45.2 °F 37.4 °F 71% 29.83 in 10.0 mi SE 3.5 mph - N/A   Clear
12:55 PM 46.4 °F - 37.4 °F 71% 29.82 in 10.0 mi Calm Calm - N/A   Clear
1:15 PM 46.4 °F 45.2 °F 37.4 °F 71% 29.80 in 10.0 mi South 3.5 mph - N/A   Clear
1:35 PM 46.4 °F - 37.4 °F 71% 29.80 in 10.0 mi Calm Calm - N/A   Clear
1:55 PM 46.4 °F 45.2 °F 37.4 °F 71% 29.78 in 10.0 mi SSE 3.5 mph - N/A   Clear
2:15 PM 48.2 °F - 37.4 °F 66% 29.76 in 10.0 mi South 3.5 mph - N/A   Clear
2:35 PM 48.2 °F - 37.4 °F 66% 29.77 in 10.0 mi South 3.5 mph - N/A   Scattered Clouds
2:55 PM 48.2 °F - 37.4 °F 66% 29.75 in 10.0 mi South 3.5 mph - N/A   Mostly Cloudy
3:15 PM 48.2 °F - 37.4 °F 66% 29.74 in 10.0 mi Calm Calm - N/A   Scattered Clouds
3:35 PM 48.2 °F - 37.4 °F 66% 29.73 in 10.0 mi SSE 4.6 mph - N/A   Mostly Cloudy
3:55 PM 48.2 °F - 39.2 °F 71% 29.71 in 10.0 mi Calm Calm - N/A   Overcast
4:15 PM 48.2 °F - 39.2 °F 71% 29.71 in 10.0 mi Calm Calm - N/A   Overcast
4:35 PM 46.4 °F 45.2 °F 39.2 °F 76% 29.70 in 10.0 mi South 3.5 mph - N/A   Overcast
4:55 PM 46.4 °F - 39.2 °F 76% 29.69 in 10.0 mi Calm Calm - N/A   Overcast
5:15 PM 46.4 °F - 41.0 °F 81% 29.67 in 10.0 mi Calm Calm - N/A   Overcast
5:35 PM 46.4 °F - 42.8 °F 87% 29.67 in 10.0 mi Calm Calm - N/A   Light Drizzle
5:55 PM 46.4 °F - 42.8 °F 87% 29.66 in 7.0 mi Calm Calm - N/A Rain Rain
6:15 PM 44.6 °F - 44.6 °F 100% 29.65 in 4.0 mi Calm Calm - N/A Rain Rain
6:35 PM 44.6 °F - 44.6 °F 100% 29.64 in 4.0 mi Calm Calm - 0.02 in Rain Rain
6:55 PM 44.6 °F 43.1 °F 44.6 °F 100% 29.62 in 4.0 mi NE 3.5 mph - 0.01 in Rain Light Rain
7:15 PM 44.6 °F - 44.6 °F 100% 29.62 in 3.0 mi Calm Calm - 0.02 in Rain Light Rain
7:35 PM 44.6 °F - 44.6 °F 100% 29.61 in 3.0 mi Calm Calm - 0.04 in Rain Rain
7:55 PM 44.6 °F - 44.6 °F 100% 29.60 in 3.0 mi Calm Calm - 0.01 in Rain Rain
8:15 PM 44.6 °F - 44.6 °F 100% 29.60 in 1.8 mi Calm Calm - 0.06 in   Overcast
8:35 PM 44.6 °F - 44.6 °F 100% 29.60 in 2.0 mi Calm Calm - 0.11 in   Overcast
8:55 PM 44.6 °F - 44.6 °F 100% 29.58 in 3.0 mi Calm Calm - 0.01 in Rain Rain
9:15 PM 44.6 °F 43.1 °F 44.6 °F 100% 29.57 in 3.0 mi NNW 3.5 mph - 0.02 in Rain Light Rain
9:35 PM 44.6 °F 41.4 °F 44.6 °F 100% 29.57 in 4.0 mi NW 5.8 mph - 0.04 in Rain Rain
9:55 PM 44.6 °F 40.2 °F 44.6 °F 100% 29.57 in 4.0 mi NW 8.1 mph - 0.01 in Rain Rain
10:15 PM 44.6 °F 42.2 °F 44.6 °F 100% 29.54 in 5.0 mi NW 4.6 mph - 0.02 in Rain Rain
10:35 PM 44.6 °F 41.4 °F 42.8 °F 93% 29.54 in 10.0 mi NW 5.8 mph - 0.05 in Rain Rain
10:55 PM 44.6 °F 40.7 °F 42.8 °F 93% 29.54 in 10.0 mi WNW 6.9 mph - 0.01 in Rain Rain
11:15 PM 44.6 °F 40.7 °F 42.8 °F 93% 29.54 in 10.0 mi WNW 6.9 mph - 0.05 in Rain Rain
11:35 PM 42.8 °F 40.1 °F 42.8 °F 100% 29.51 in 10.0 mi North 4.6 mph - 0.07 in Rain Light Rain
11:55 PM 42.8 °F 38.0 °F 42.8 °F 100% 29.50 in 10.0 mi NW 8.1 mph - 0.01 in Rain Light Rain